Flag for Germany Weather past 2 weeks in Salzwedel, Saxony-Anhalt, Germany

Now
50 °F

Passing clouds.


Feels Like: 46 °F
Forecast: 44 / 56 °F
Wind: 10 mph from Northwest

Location: Fassberg

Current Time: Oct 23, 2014 at 3:39:20 AM

Latest Report: Oct 23, 2014 at 2:20 AM


Visibility: 5 mi

Pressure: 30.07 "Hg

Humidity: 88%

Dew point: 46 °F

Location of SalzwedelLocation

Historic Weather in Salzwedel — Graph

°F

Salzwedel temperature yesterday

Maximum temperature yesterday: 57 °F (at 4:20 PM)
Minimum temperature yesterday: 46 °F (at 2:20 AM)
Average temperature yesterday: 50 °F

Past Weeks' High & Low Weather Summary

 TemperatureHumidityPressure
High73 °F (Oct 19, 3:20 PM)100% (Oct 11, 3:20 AM)30.15 "Hg (Oct 11, 3:20 AM)
Low45 °F (Oct 14, 7:20 AM)49% (Oct 14, 3:20 PM)29.42 "Hg (Oct 21, 6:20 PM)
Average55 °F87%29.82 "Hg
* Reported Oct 8 2:20 AM — Oct 23 2:20 AM, Salzwedel, Weather by CustomWeather, © 2014

Note: Actual official high and low records may vary slightly from our data, if they occured in-between our weather recording intervals... More about our weather records

Advertising

Salzwedel weather history for previous 24 hours

 ConditionsComfort  
Time TempWeatherWind HumidityBarometerVisibility
2:20 AM
Oct 23
50 °FPassing clouds.10 mph88%30.07 "Hg5 mi
1:20 AM50 °FPassing clouds.10 mph88%30.04 "Hg5 mi
12:20 AM50 °FPartly cloudy.12 mph88%30.04 "Hg5 mi
11:20 PM
Oct 22
50 °FPassing clouds.10 mph88%30.04 "HgN/A
10:20 PM52 °FPassing clouds.13 mph82%30.01 "HgN/A
9:20 PM52 °FPassing clouds.16 mph82%29.98 "HgN/A
8:20 PM52 °FPassing clouds.14 mph88%29.95 "HgN/A
7:50 PM52 °FPartly cloudy.13 mph88%29.92 "HgN/A
7:20 PM52 °FPartly cloudy.14 mph88%29.92 "HgN/A
6:20 PM54 °FPartly sunny.16 mph82%29.89 "HgN/A
5:20 PM55 °FSprinkles. Partly sunny.13 mph82%29.83 "HgN/A
4:20 PM57 °FBroken clouds.9 mph72%29.80 "HgN/A
3:20 PM55 °FBroken clouds.12 mph77%29.77 "HgN/A
2:20 PM55 °FBroken clouds.9 mph77%29.74 "HgN/A
1:20 PM54 °FBroken clouds.14 mph82%29.71 "HgN/A
12:20 PM52 °FBroken clouds.14 mph88%29.68 "HgN/A
11:20 AM48 °FBroken clouds.15 mph94%29.65 "Hg5 mi
10:50 AM46 °FFog.14 mph93%29.65 "Hg3 mi
10:20 AM46 °FDrizzle. Fog.15 mph93%29.62 "Hg2 mi
9:20 AM46 °FDrizzle. Fog.16 mph93%29.62 "Hg2 mi
8:20 AM46 °FDrizzle. Fog.16 mph93%29.62 "Hg2 mi
7:45 AM46 °FDrizzle. Fog.14 mph93%29.62 "Hg2 mi
7:20 AM46 °FDrizzle. Fog.13 mph93%29.62 "Hg3 mi
6:20 AM48 °FPartly cloudy.14 mph87%29.59 "Hg4 mi
5:20 AM46 °FPassing clouds.12 mph93%29.59 "Hg4 mi
4:20 AM46 °FLight rain. Fog.13 mph93%29.59 "Hg3 mi
3:20 AM46 °FLight rain. Passing clouds.16 mph87%29.59 "HgN/A
Weather by CustomWeather, © 2014

See weather overviewHow to use our weather pages